User: anonymous   Login
Location: Unspecified
(0.0000°N, 0.0000°E)
Time: 01:01:10
(UTC+00:00)
Language:

DNEPR OBJECT AB - Orbit

View from above orbital plane
View from above orbital plane
View from above satellite
View from above satellite

Ground track
Ground track

The orbit data is extracted from the following two-line orbital elements,

1 39441U 13066AB  21023.62688371  .00000224  00000-0  38839-4 0  9999
2 39441  97.6666 357.6898 0081516 356.7370   3.3297 14.75112215386023
Epoch (UTC): 23 January 2021 15:02:42
Eccentricity: 0.0081516
inclination: 97.6666°
perigee height: 587 km
apogee height: 702 km
right ascension of ascending node: 357.6898°
argument of perigee: 356.7370°
revolutions per day: 14.75112215
mean anomaly at epoch: 3.3297°
orbit number at epoch: 38602

The dashed part of the orbit path shows where the satellite is in the earth's shadow,  

DLR